Regional Weather Roundup
Issued by NWS Green Bay, WI

Home | Current Version | Previous Version | Graphics & Text | Print | Product List | Glossary Off
Versions: 1 2 3 4 5 6 7 8 9 10 11 12 13 14 15 16 17 18 19 20 21 22 23 24 25 26 27 28 29 30 31 32 33 34 35 36 37 38 39 40 41 42 43 44 45 46 47 48 49 50

000
ASUS43 KGRB 300900
RWRGRB

NORTH-CENTRAL AND NORTHEAST WISCONSIN REGIONAL WEATHER ROUNDUP
NATIONAL WEATHER SERVICE GREEN BAY WI
400 AM CDT SUN AUG 30 2015

WIZ005-009-010>012-018-019-301000-
NORTH CENTRAL WISCONSIN

CITY           SKY/WX    TMP DP  RH WIND       PRES   REMARKS
IRONWOOD       PTCLDY    63  61  94 SW5       29.97S
MANITOWISH WTR NOT AVBL
ARBOR VITAE    NOT AVBL
EAGLE RIVER    NOT AVBL
LAND O LAKES   NOT AVBL
RHINELANDER    CLOUDY    59  58  96 SW6       30.06S FOG
PHILLIPS       NOT AVBL
ANTIGO         NOT AVBL
TOMAHAWK       NOT AVBL
MERRILL        NOT AVBL
$$

WIZ013-073-301000-
NORTHEAST WISCONSIN

CITY           SKY/WX    TMP DP  RH WIND       PRES   REMARKS
IRON MOUNTAIN  CLEAR     55  54  96 CALM      30.02F FOG
MARINETTE      CLOUDY    57  54  88 CALM      30.03S VSB 1/4
$$

WIZ017-030-035>037-045-301000-
CENTRAL WISCONSIN

CITY           SKY/WX    TMP DP  RH WIND       PRES   REMARKS
MEDFORD        NOT AVBL
WAUSAU         FOG       53  52  96 CALM      30.05R VSB 1/4
MOSINEE        NOT AVBL
MARSHFIELD     FOG       58  54  86 CALM      30.05S VSB 1/2
WISC RAPIDS    FOG       56  54  93 CALM      30.06S VSB 1/4
STEVENS POINT  NOT AVBL
WAUPACA        NOT AVBL
SHAWANO        NOT AVBL
CLINTONVILLE   NOT AVBL
WAUTOMA        NOT AVBL
$$

WIZ038-039-048-051-301000-
FOX VALLEY

CITY           SKY/WX    TMP DP  RH WIND       PRES   REMARKS
NWS GREEN BAY  FOG       59  59 100 CALM      30.05S VSB 1/4
APPLETON       NOT AVBL
OSHKOSH        FOG       58  58 100 CALM      30.05R VSB 1/2
FOND DU LAC    FOG       57  56  96 CALM      30.05R VSB 1/4
$$

WIZ022-050-052-301000-
EAST CENTRAL WISCONSIN

CITY           SKY/WX    TMP DP  RH WIND       PRES   REMARKS
EPHRAIM        NOT AVBL
STURGEON BAY     N/A     55  52  88 CALM      30.06S VSB 1/4
MANITOWOC      NOT AVBL
SHEBOYGAN      FOG       54  54 100 CALM      30.04S VSB 1/4
$$

LMZ563-521-522-541>543-301000-
LAKESHORE

STATION/POSITION TIME  TEMP    WIND        PRES    VSBY  WAVE
                       AIR SEA DIR/SP/G                  HT/PER
                 (UTC) (F)     (DEG/KT/KT) (MB)    (MI)  (FT/S)
SHEBOYGAN LKSHOR 0800   53     350/  4/  4 1017.6R
ALGOMA MARINA    0814             CALM       N/A
NORTHPORT PIER   0802   60     220/  2/  6 1016.9S
N MID LAKE BUOY  0750   63 65  210/  6/  8 1017.0R         1
S GREEN BAY BUOY 0800   62 62  230/  4/  6 1018.6S
SISTER BAY LKSHO 0819   62     270/  6/  7   N/A
CHAMBERS ISLAND  0800   60     210/  3/  5 1017.3S
$$



USA.gov is the U.S. government's official web portal to all federal, state and local government web resources and services.